METAR UND TAF INFORMATION
RJAA 240030Z 08004KT 9999 VCSH FEW015 BKN020 28/23 Q1007 NOSIG RMK 1CU015 6CU020 A2976

 FLUGHAFENKARTE

 RUNWAY INFORMATION
Runway 16L Runway length 7152 ft Runway width 196 ft
Runway elevation 135 ft Runway displaced threshold 190 ft Runway heading 150
Runway 34R Runway length 7152 ft Runway width 196 ft
Runway elevation 141 ft Runway displaced threshold 190 ft Runway heading 330
Runway 16R Runway length 13123 ft Runway width 196 ft
Runway elevation 130 ft Runway displaced threshold 0 ft Runway heading 150
Runway 34L Runway length 13123 ft Runway width 196 ft
Runway elevation 139 ft Runway displaced threshold 2460 ft Runway heading 330

 AIRPORT FREQUENCIES
Type APP Name TOKYO APP Frequency 124.4 MHZ
Type ATIS Name ATIS Frequency 128.25 MHZ
Type CLD Name CLNC DEL Frequency 121.9 MHZ
Type CLR Name CLNC DEL Frequency 121.65 MHZ
Type DEP Name TOKYO DEP Frequency 124.2 MHZ
Type GND Name Frequency 121.85 MHZ
Type GND Name GND Frequency 121.95 MHZ
Type RDR Name TOKYO RDR Frequency 120.2 MHZ
Type RMP Name RAMP Frequency 121.6 MHZ
Type RMP Name RAMP Frequency 121.75 MHZ
Type TCA Name TOKYO TCA Frequency 119.45 MHZ
Type TWR Name TWR Frequency 118.2 MHZ
Type TWR Name Frequency 118.35 MHZ

 AIRPORT NEAR NAVIGATION AIDS
Type VOR-DME Name Narita Frequency 117900 KHZ
Type VOR-DME Name Sakura Frequency 112700 KHZ